Theta_e
292 292 291 290 290 290 289 288 288 288 287 286 286 285 285 285 286 286 286 286 286 285 286 286 286 285 286 286 286 286 286 286 285 286 285 286 285 285 285 285 285 285
291 290 290 289 289 289 288 288 287 286 286 286 286 285 285 285 286 286 286 286 286 285 285 285 285 284 284 284 285 285 284 285 284 286 284 285 284 284 284 284 284 285
290 289 289 288 287 287 286 287 287 286 285 285 285 285 285 285 285 285 285 285 285 284 284 284 284 283 283 283 283 284 283 283 282 283 283 283 283 283 283 283 283 284
289 288 287 287 286 286 286 286 286 286 286 285 284 285 285 285 284 284 284 283 283 283 283 283 282 282 282 282 282 282 282 282 282 282 281 282 282 282 282 282 282 282
288 287 288 287 287 287 287 286 285 285 284 284 284 284 283 283 283 282 282 282 282 281 281 281 281 281 280 280 281 280 281 281 281 280 280 280 281 281 281 281 281 280
288 288 287 287 287 286 285 285 284 284 283 283 283 283 282 282 281 281 281 281 280 280 280 280 280 279 279 279 279 279 279 279 279 279 279 279 279 280 281 280 280 279
286 286 286 286 285 285 283 283 283 283 282 282 282 281 281 281 280 280 280 280 279 279 279 278 278 278 278 278 278 278 278 278 278 278 278 278 278 278 279 279 279 278
285 285 285 284 284 283 283 282 282 281 281 281 280 280 280 279 279 279 279 278 278 278 278 278 277 277 277 277 277 277 277 278 278 277 277 277 278 277 278 279 278 277
284 284 284 283 282 282 281 281 281 280 280 280 280 279 279 279 278 278 278 277 277 277 277 277 276 276 276 276 276 276 275 276 277 276 276 276 276 277 277 277 277 277
283 283 282 282 281 281 280 280 280 279 279 279 279 278 277 278 277 276 276 276 276 276 276 276 275 275 275 276 276 275 275 275 276 276 276 276 276 276 276 276 276 276
281 282 281 281 280 280 279 278 278 278 278 277 277 277 277 276 276 276 275 276 276 275 275 275 275 275 275 274 275 275 274 275 275 276 276 276 276 276 276 276 275 275
281 280 279 279 278 277 277 277 277 277 276 277 276 276 276 276 275 275 275 274 275 274 274 274 274 274 274 274 274 274 275 275 276 276 276 276 276 276 276 275 275 275
279 279 278 278 277 277 277 277 276 276 276 276 276 275 275 275 275 274 275 274 274 274 273 273 273 273 273 273 273 274 275 275 275 275 275 275 275 275 275 275 275 275
278 279 278 278 277 277 276 276 276 275 275 275 275 274 274 274 274 273 274 274 273 273 273 273 273 273 273 273 273 274 274 274 274 275 274 274 275 275 275 275 275 275
279 278 278 277 277 276 276 275 275 275 274 274 274 274 274 273 273 273 273 273 273 273 272 273 272 272 272 272 273 274 274 274 274 274 274 274 274 274 274 274 274 274
278 278 277 276 276 275 275 275 274 274 274 273 273 273 273 273 272 272 272 272 272 272 272 272 272 272 271 272 274 274 274 274 274 274 274 273 273 273 273 274 274 274
277 277 276 276 275 275 274 274 274 273 273 273 272 272 272 271 272 272 272 272 271 271 271 272 272 272 272 273 274 275 274 273 273 273 273 273 273 272 272 272 273 273
277 276 276 275 275 274 274 273 273 272 272 272 271 271 271 271 271 271 271 271 271 271 271 271 271 272 272 273 274 275 275 274 273 273 272 272 273 272 272 272 272 272
277 276 276 275 274 273 273 272 271 271 271 270 270 271 271 270 271 270 270 270 270 269 269 270 270 272 272 273 274 274 275 274 273 273 272 272 272 272 272 272 271 271
276 276 275 274 273 272 271 270 270 270 271 271 270 270 270 270 269 268 269 269 268 268 268 269 269 271 271 272 273 274 274 274 273 272 272 272 271 271 271 271 270 270
276 275 274 273 272 271 270 270 270 270 269 270 270 270 269 269 268 268 268 267 267 267 267 267 268 270 271 272 273 273 274 274 272 272 271 271 271 271 271 270 270 270
275 274 273 272 271 270 270 270 269 269 269 270 269 269 269 268 268 268 266 266 266 266 265 266 267 270 271 271 272 273 274 272 271 270 270 270 270 270 270 271 271 271
274 274 273 272 271 270 269 270 269 269 269 269 267 269 268 268 267 266 266 266 265 264 264 265 266 268 269 271 272 272 272 270 270 269 269 269 270 270 270 271 271 271
274 274 272 271 270 269 269 269 269 269 268 268 267 267 267 266 266 265 265 265 264 264 264 263 264 266 269 270 271 272 272 270 269 269 269 269 269 270 270 271 271 272
274 273 272 271 270 269 269 269 268 268 268 266 266 267 266 266 265 265 265 265 264 264 265 264 263 265 268 269 270 271 271 270 270 269 268 269 269 269 270 270 271 272
273 272 271 270 269 268 267 267 267 266 265 266 265 266 265 266 265 264 263 263 264 263 263 263 263 264 265 268 270 271 272 270 270 269 268 269 269 269 269 270 271 271
Wind_Speed
8 8 8 8 8 7 7 7 6 7 6 5 6 5 5 5 5 5 4 5 5 5 5 5 5 5 4 4 3 2 2 2 2 3 3 3 3 3 3 5 5 4
9 9 8 8 7 6 6 6 6 6 6 5 5 5 4 4 3 4 4 3 3 4 4 4 3 3 3 3 3 2 3 3 3 3 4 4 4 4 4 6 5 5
8 8 8 8 7 8 7 6 6 6 6 5 5 5 4 3 3 3 3 3 3 3 3 3 2 3 2 3 4 2 3 3 4 5 5 5 5 5 5 6 6 6
8 8 8 8 7 7 6 6 5 5 5 4 4 4 3 3 3 3 3 3 3 2 2 2 2 3 3 4 4 3 5 5 5 6 6 5 5 5 6 5 6 6
8 7 7 6 6 6 5 6 6 5 5 5 4 4 4 3 3 3 3 2 2 2 2 3 4 4 5 5 6 6 6 5 6 6 6 6 5 5 4 5 5 6
7 6 7 6 6 6 6 6 6 6 5 5 5 4 3 4 3 3 3 3 3 3 4 5 6 6 7 7 6 5 5 4 5 6 5 5 5 5 4 4 5 6
7 7 7 6 7 7 6 6 5 5 4 5 5 4 4 4 4 3 4 4 4 5 5 5 5 5 4 4 4 4 4 4 5 5 5 5 5 6 5 5 5 6
7 6 6 6 6 6 6 5 5 4 4 5 5 4 4 4 4 3 3 4 3 3 3 3 4 4 4 4 4 5 5 4 4 5 5 5 5 5 5 4 5 6
7 6 6 7 6 5 6 5 5 5 4 5 4 4 4 4 3 3 3 3 2 3 3 3 4 3 4 3 4 4 5 4 4 5 5 5 5 6 6 5 6 6
7 7 7 7 6 5 5 5 4 4 4 5 4 4 4 3 3 3 2 2 2 2 3 3 3 3 3 3 3 4 4 5 5 5 5 5 5 6 6 6 6 6
7 6 6 6 6 5 5 5 4 4 4 4 4 4 3 2 2 2 1 1 1 2 3 3 3 3 3 3 4 4 4 5 5 5 5 5 6 6 6 6 6 6
7 6 6 6 6 6 5 4 4 4 3 3 3 3 3 2 2 1 1 1 1 1 2 3 3 3 3 4 4 4 4 5 5 5 5 6 6 6 6 6 6 6
6 5 5 5 5 5 5 4 4 3 3 3 3 3 2 2 2 1 0 1 1 1 2 3 3 3 3 3 4 4 4 5 5 6 6 6 5 6 6 6 6 6
6 6 6 6 5 5 5 5 3 2 2 2 2 3 3 2 2 1 1 1 0 1 2 2 3 3 2 3 4 4 5 5 5 6 6 6 7 7 6 6 7 7
7 6 6 6 6 5 5 4 3 3 2 3 2 2 2 2 1 1 1 1 1 1 2 2 2 2 1 3 4 5 5 6 6 6 7 7 7 7 7 7 7 7
8 7 7 6 6 6 5 4 4 3 3 3 3 2 2 2 1 1 1 1 1 1 2 2 2 1 0 5 6 5 6 6 6 7 7 7 8 8 8 7 7 8
8 7 7 7 6 6 5 5 4 3 3 3 3 2 2 2 2 2 1 0 0 1 2 3 2 2 3 7 8 9 7 7 7 7 7 8 8 8 8 8 8 8
8 8 7 7 7 6 6 3 3 2 2 2 3 2 2 2 2 2 1 1 0 2 3 3 3 4 5 7 9 9 9 7 7 7 7 7 8 8 9 9 9 9
8 8 8 6 5 5 5 4 3 3 3 3 3 2 2 3 3 2 2 1 1 2 3 4 4 4 5 8 9 10 10 9 6 7 7 8 8 9 9 9 9 8
8 7 6 6 6 5 5 5 5 5 4 3 3 3 3 2 2 2 2 1 2 2 4 4 5 5 7 9 10 10 10 9 7 8 8 8 9 8 8 9 9 9
8 8 7 7 7 6 5 5 5 4 4 4 4 4 4 3 3 2 2 1 2 3 4 5 5 7 8 9 10 10 11 10 7 7 7 7 8 8 9 9 10 9
8 7 7 7 7 6 6 6 5 5 5 4 3 3 2 2 1 2 2 3 3 3 4 6 6 8 8 9 10 10 11 6 5 6 6 7 8 8 8 8 9 10
9 9 8 8 7 7 6 6 6 6 5 4 4 4 3 3 2 2 2 2 3 3 4 5 5 7 8 9 10 10 8 5 6 6 6 7 8 8 8 9 9 10
9 7 8 8 7 7 7 6 5 4 5 4 4 4 3 3 2 2 2 3 4 4 4 5 5 7 10 10 10 10 8 6 5 6 7 7 8 8 8 8 10 16
7 7 7 7 7 7 7 7 6 5 4 4 3 2 2 2 2 2 2 2 4 4 7 6 6 7 9 9 10 9 7 5 5 5 7 7 7 8 8 9 11 13
5 9 8 7 7 7 6 5 5 4 4 4 4 2 3 2 3 2 3 3 3 4 5 5 5 4 5 10 9 9 9 6 6 5 6 8 8 8 9 9 9 9
Wind_Direction
95 96 94 91 87 88 87 87 85 85 80 78 78 74 68 63 45 41 48 52 43 39 34 30 26 18 359 0 345 346 16 14 8 19 345 358 349 356 343 344 330 331
90 91 93 93 92 88 88 86 88 90 86 83 88 88 82 75 66 52 39 45 57 46 36 30 25 15 357 352 327 348 5 7 22 9 345 358 360 357 359 346 341 341
99 98 97 97 99 97 95 93 93 90 90 91 92 90 92 83 70 66 48 36 45 53 39 36 20 19 6 352 331 13 10 13 22 5 357 2 0 0 355 349 345 344
99 98 99 100 104 108 108 111 109 105 107 95 84 92 94 87 76 69 71 45 50 43 44 32 24 23 10 9 358 20 9 16 20 4 358 358 355 356 349 345 337 333
111 110 111 112 115 112 110 107 102 98 97 100 101 87 81 81 78 72 61 55 55 39 32 27 27 22 15 13 10 14 7 9 10 3 355 347 342 347 340 333 326 321
121 122 121 122 122 121 115 111 110 111 107 103 98 94 90 81 78 70 59 54 42 34 24 22 18 16 13 9 4 9 357 356 351 349 339 331 328 330 320 311 308 309
132 129 122 118 116 115 113 110 109 109 111 112 108 94 85 81 73 59 47 40 31 28 23 13 13 6 1 358 353 349 343 339 333 331 326 315 316 311 308 310 309 301
131 123 117 116 118 117 115 116 113 110 117 115 106 97 86 75 69 59 44 36 35 24 17 9 4 1 353 353 347 339 337 334 324 320 314 306 305 303 307 309 302 300
130 128 126 121 119 118 120 121 120 116 110 106 98 97 87 72 55 53 43 33 29 16 6 6 359 355 350 344 335 330 323 321 317 313 307 304 305 303 309 308 308 302
134 131 130 131 127 122 125 125 120 109 102 96 96 87 87 80 70 48 42 28 15 12 3 352 354 346 339 331 326 319 319 316 314 307 300 297 296 301 307 304 300 303
136 137 137 134 126 124 121 111 106 102 91 93 101 104 88 92 84 85 40 28 20 4 347 341 341 337 328 328 329 326 316 308 300 299 294 293 292 292 292 297 296 294
139 136 135 131 127 128 125 117 108 107 113 109 111 113 112 113 90 54 86 11 6 344 327 325 334 336 331 328 326 317 306 300 299 297 295 293 293 290 293 294 292 293
138 141 137 134 139 136 129 117 109 112 128 127 119 115 122 138 127 151 237 110 317 336 322 335 331 323 322 325 317 311 306 301 300 299 297 298 290 292 291 288 290 291
146 147 151 152 141 133 123 118 118 131 141 131 133 152 144 148 158 150 183 148 276 306 312 314 309 305 319 336 324 317 312 306 301 297 297 295 293 290 293 290 289 289
148 150 155 145 138 128 125 127 138 153 165 164 163 150 123 141 137 163 184 206 215 257 281 295 292 287 21 344 326 318 312 306 301 300 301 297 297 295 293 292 290 291
152 153 154 145 137 134 132 137 151 169 179 174 162 143 140 125 163 179 169 206 302 287 287 275 277 258 321 306 308 307 308 301 299 298 297 299 300 299 295 294 295 294
149 156 149 146 144 139 136 147 166 175 182 170 154 139 150 154 187 172 157 139 244 277 281 280 264 241 281 301 309 308 307 301 298 298 295 296 295 297 299 299 299 297
158 153 150 149 145 143 142 155 161 170 182 174 165 160 170 166 176 145 155 181 238 269 274 273 277 267 281 299 305 305 305 303 298 296 296 294 294 295 296 297 297 299
155 154 153 150 146 143 146 147 157 181 184 175 178 161 169 174 161 143 172 184 238 261 271 272 268 273 284 296 303 305 308 307 296 291 290 290 291 294 292 292 298 299
157 156 153 150 140 144 151 156 170 192 182 177 163 174 175 163 157 173 180 211 243 266 268 272 277 273 286 295 303 305 306 306 295 291 287 286 288 290 289 294 296 295
159 162 154 144 143 155 159 166 178 181 175 181 174 179 173 176 173 182 192 218 254 252 265 273 270 273 284 295 299 304 304 308 299 291 289 285 287 287 288 290 290 290
163 163 152 146 154 163 164 169 175 183 184 177 166 170 164 156 170 173 203 225 239 250 256 266 269 277 286 291 297 302 309 309 297 290 288 287 287 285 285 288 289 290
169 162 153 153 161 164 164 169 175 183 181 170 171 176 168 176 173 195 212 224 237 241 251 261 270 279 286 293 298 303 311 299 292 288 288 290 286 288 288 287 287 289
171 161 154 153 162 166 161 168 175 179 176 177 171 172 169 173 182 194 216 227 234 241 247 258 269 281 287 293 296 299 301 298 294 288 288 288 288 289 288 286 286 289
163 153 152 154 160 162 156 165 171 173 166 162 163 155 160 168 184 204 215 234 238 244 254 259 266 273 281 287 291 295 298 293 290 291 289 289 293 291 290 289 288 287
147 151 152 150 152 144 143 155 157 158 165 166 158 166 167 177 184 204 211 240 247 242 245 247 256 264 273 284 291 294 296 294 292 288 288 292 292 291 283 276 274 282